STARLINK-35413, 65886

Orbit data source: Space-Track

STARLINK-35413, 65886 is a payload satellite owned by SpaceX/Seattle (US) in LEO that was launched on Tue, 07 Oct 2025 UTC via an FALCON 9 launch vehicle from the Air Force Eastern Test Range (AFETR). Payload-class satellites include a variety of spacecraft equipped with specific instruments for various scientific and technological missions. These include communications satellites like Starlink; space stations such as the ISS; scientific satellites like the Hubble; Earth observation satellites from companies like Planet Labs, Umbra, and HawkEye 360; GPS; miniature CubeSats for education and research; and military/defense satellites.

Loading next visibility...
Identifier
65886, 2025-224E
Orbit
LEO
Country
Flag of USUS
Related business
Manufacturer
SpaceX/Seattle
Mission
Operational spacecraft
Bus & Motor
STARLINK V2MO, Unknown motor
Mass
575 kg wet, ~530 kg dry
Launch date (UTC)
2025-10-07 (2 months ago)
Launch vehicle
FALCON 9
Launch site
Air Force Eastern Test Range (AFETR)
Object type
Payload
Rocket body
Debris
Shape & HBR
Unknown shape, 17.7 m
Radar Cross Section
RCS unknown

Expand to show TLE details & history
Last TLE update: 19 hours ago

TLE from 19 hours ago
0 STARLINK-35413
1 65886U 25224E   25340.59007339  .00057356  00000-0  19321-2 0  9992
2 65886  53.1607  83.5522 0001121  83.4875 276.6254 15.30228164 10524
Epoch: 2025-12-06T14:09Z
TLE epoch observation values (Epoch: 2025-12-06T14:09:42.340Z)
Latitude
0.00001°
Longitude
155.51016°
Altitude
475.942 km
Speed
7.629 km/s
True Right ascension
05h 34m 12s
True Declination
0° 00' 00"
Sunlit
Object was in full shadow at epoch
Visualization orbit readout
Latitude
Unknown
Longitude
Unknown
Altitude
Unknown
Speed
Unknown
Apparent Right ascension
Unknown
Apparent Declination
Unknown
Sunlit
N/A
Visualization observer readout
Local Sidereal Time
07:23:02
Azimuth
Unknown
Elevation
Unknown
Doppler factor
Unknown
Orbital elements
Apogee altitude
476.156 km
Perigee altitude
474.619 km
Semi-major axis
6,853.524 km
Eccentricity
0.00011
Inclination
53.1607°
RAAN
83.5522°
Arg. of periapsis
83.4875°
True anomaly
276.61264°
Mean anomaly
276.6254°
Eccentric anomaly
276.61902°
Mean motion
3.82536 °/min
Orbital period
94.11 mins
BSTAR
0.0019321
Loading maneuver chart data...
Computing Atmospheric mass density...
Loading historical data...
Loading historical data...
Loading historical data...
Loading historical data...
Loading historical data...
Loading historical data...
Loading historical data...

Documentation

Showing up to 5 results
|